ON7SD-5 Weather Reports


time (UTC)temp
C
wind
direction
speed
KPH
gust
KPH
rain 1hr
cm
rain 24hr
cm
rain mn
cm
humidity
%
barometer
mb
20260505041707 11 18 1.6 11.3 0.00 0.20 0.00 89 1010.2
20260505041207 11 18 1.6 6.4 0.00 0.20 0.00 89 1010.2
20260505040707 11 18 1.6 12.9 0.00 0.20 0.00 89 1010.3
20260505040207 11 16 3.2 9.7 0.00 0.20 0.00 89 1010.4
20260505035707 11 16 3.2 9.7 0.00 0.20 0.00 89 1010.4
20260505035207 11 16 1.6 12.9 0.00 0.20 0.00 89 1010.4
20260505034707 11 16 0.0 4.8 0.00 0.20 0.00 90 1010.5
20260505034207 11 16 1.6 9.7 0.00 0.20 0.00 90 1010.5
20260505033707 11 16 1.6 11.3 0.00 0.20 0.00 90 1010.5
20260505033207 11 16 1.6 6.4 0.00 0.20 0.00 90 1010.6
20260505032707 11 16 1.6 6.4 0.00 0.20 0.00 90 1010.6
20260505032207 11 16 1.6 8.0 0.00 0.20 0.00 89 1010.6
20260505031707 11 16 1.6 9.7 0.00 0.20 0.00 89 1010.6
20260505031207 11 15 1.6 9.7 0.00 0.20 0.00 89 1010.7
20260505030707 11 15 1.6 9.7 0.00 0.20 0.00 89 1010.8
20260505030207 11 15 1.6 8.0 0.00 0.20 0.00 89 1010.8
20260505025707 11 16 1.6 8.0 0.00 0.20 0.00 89 1010.7
20260505025207 11 15 1.6 8.0 0.00 0.20 0.00 90 1010.7
20260505024707 11 16 1.6 11.3 0.00 0.20 0.00 90 1010.6
20260505024207 11 16 1.6 6.4 0.00 0.20 0.00 90 1010.6
20260505023707 12 15 3.2 14.5 0.00 0.20 0.00 90 1010.5
20260505023207 12 17 3.2 11.3 0.00 0.20 0.00 90 1010.5
20260505022707 12 17 1.6 9.7 0.00 0.20 0.00 90 1010.5
20260505022207 12 17 1.6 4.8 0.00 0.20 0.00 90 1010.6
20260505021707 12 17 3.2 8.0 0.00 0.20 0.00 90 1010.6
20260505021207 12 16 3.2 11.3 0.00 0.20 0.00 90 1010.6
20260505020707 12 13 3.2 11.3 0.00 0.20 0.00 90 1010.6
20260505020207 12 13 1.6 6.4 0.00 0.20 0.00 91 1010.6
20260505015707 12 13 3.2 8.0 0.00 0.20 0.00 91 1010.5
20260505015207 12 12 1.6 9.7 0.00 0.20 0.00 91 1010.5
20260505014707 12 12 1.6 9.7 0.00 0.20 0.00 91 1010.5
20260505014207 12 12 1.6 9.7 0.00 0.20 0.00 91 1010.5
20260505013707 12 12 1.6 11.3 0.00 0.20 0.00 91 1010.5
20260505013207 12 12 1.6 11.3 0.00 0.20 0.00 91 1010.5
20260505012707 12 12 1.6 9.7 0.00 0.20 0.00 91 1010.5
20260505012207 12 12 1.6 11.3 0.00 0.20 0.00 92 1010.5
20260505011707 12 12 1.6 8.0 0.00 0.20 0.00 92 1010.5
20260505011207 11 12 1.6 6.4 0.00 0.20 0.00 92 1010.5
20260505010707 11 12 1.6 9.7 0.00 0.20 0.00 92 1010.5
20260505010207 11 13 1.6 9.7 0.00 0.20 0.00 92 1010.6
20260505005707 11 13 3.2 9.7 0.00 0.20 0.00 92 1010.6
20260505005207 11 8 1.6 8.0 0.00 0.20 0.00 92 1010.8
20260505004707 11 8 1.6 9.7 0.00 0.20 0.00 92 1010.8
20260505004207 11 8 1.6 8.0 0.00 0.20 0.00 92 1010.9
20260505003707 11 8 1.6 6.4 0.00 0.20 0.00 92 1011.0
20260505003207 11 8 3.2 11.3 0.00 0.20 0.00 92 1011.0
20260505002707 11 8 1.6 8.0 0.00 0.20 0.00 92 1011.1
20260505002208 11 8 1.6 8.0 0.00 0.20 0.00 92 1011.2
20260505001707 11 8 1.6 9.7 0.00 0.20 0.00 92 1011.3
20260505001207 11 8 0.0 4.8 0.00 0.20 0.00 92 1011.3
20260505000707 11 8 0.0 4.8 0.00 0.20 0.00 92 1011.3
20260505000208 11 8 1.6 9.7 0.00 0.20 0.00 92 1011.3
20260504235708 11 8 1.6 9.7 0.00 0.20 0.00 92 1011.3
20260504235207 11 8 0.0 4.8 0.00 0.20 0.00 92 1011.3
20260504234708 11 8 0.0 8.0 0.00 0.20 0.00 92 1011.4
20260504234208 11 8 0.0 1.6 0.00 0.20 0.00 92 1011.5
20260504233708 11 8 0.0 6.4 0.00 0.20 0.00 92 1011.5
20260504233208 11 8 0.0 6.4 0.00 0.20 0.00 92 1011.5
20260504232708 11 8 0.0 4.8 0.00 0.20 0.00 92 1011.5
20260504232208 11 8 0.0 6.4 0.00 0.20 0.00 92 1011.5
20260504231708 12 8 0.0 0.0 0.00 0.20 0.00 92 1011.6
20260504231208 12 8 0.0 0.0 0.00 0.20 0.00 92 1011.6
20260504230708 12 8 0.0 0.0 0.00 0.20 0.00 92 1011.7
20260504230208 12 8 1.6 6.4 0.00 0.20 0.00 92 1011.7
20260504225708 12 8 1.6 6.4 0.00 0.20 0.00 92 1011.6
20260504225208 11 8 1.6 11.3 0.00 0.20 0.00 92 1011.6
20260504224708 11 8 1.6 8.0 0.00 0.20 0.00 92 1011.6
20260504224208 11 8 3.2 9.7 0.00 0.20 0.00 91 1011.6
20260504223708 11 8 1.6 8.0 0.00 0.20 0.00 91 1011.7
20260504223208 11 8 3.2 8.0 0.00 0.20 0.00 91 1011.7
20260504222708 11 8 3.2 11.3 0.00 0.20 0.00 91 1011.7
20260504222208 12 8 1.6 6.4 0.00 0.20 0.00 91 1011.7
20260504221708 12 8 0.0 6.4 0.00 0.20 0.00 91 1011.7
20260504221208 12 8 0.0 0.0 0.00 0.20 0.00 92 1011.8
20260504220708 12 8 0.0 0.0 0.00 0.20 0.00 92 1011.8
20260504220208 12 8 1.6 0.0 0.00 0.20 0.20 92 1011.8
20260504215708 11 8 1.6 12.9 0.00 0.20 0.20 92 1011.9
20260504215208 12 8 1.6 9.7 0.00 0.20 0.20 92 1011.9
20260504214708 11 8 1.6 6.4 0.00 0.20 0.20 92 1011.9
20260504214208 11 8 3.2 8.0 0.00 0.20 0.20 92 1012.0
20260504213708 12 8 1.6 11.3 0.00 0.20 0.20 92 1011.9
20260504213208 12 8 1.6 8.0 0.00 0.20 0.20 92 1012.0
20260504212708 12 8 1.6 9.7 0.00 0.20 0.20 92 1011.9
20260504212208 12 8 1.6 9.7 0.00 0.20 0.20 92 1012.0
20260504211708 12 8 1.6 9.7 0.00 0.20 0.20 92 1012.1
20260504211208 12 8 1.6 11.3 0.00 0.20 0.20 92 1012.1
20260504210708 11 8 1.6 9.7 0.00 0.20 0.20 92 1012.1
20260504210208 12 8 1.6 9.7 0.00 0.20 0.20 92 1012.2
20260504205708 12 8 1.6 9.7 0.00 0.20 0.20 92 1012.1
20260504205208 12 8 1.6 8.0 0.00 0.20 0.20 92 1012.1
20260504204708 12 8 1.6 6.4 0.00 0.20 0.20 91 1012.2
20260504204208 12 6 0.0 8.0 0.00 0.20 0.20 91 1012.1
20260504203708 12 6 0.0 4.8 0.00 0.20 0.20 91 1012.2
20260504203208 12 6 0.0 8.0 0.00 0.20 0.20 91 1012.2
20260504202708 12 6 0.0 0.0 0.00 0.20 0.20 90 1012.1
20260504202208 12 6 0.0 4.8 0.00 0.20 0.20 90 1012.1
20260504201708 12 6 0.0 6.4 0.00 0.20 0.20 90 1012.1
20260504201208 12 6 0.0 4.8 0.00 0.20 0.20 90 1012.1
20260504200708 12 6 0.0 6.4 0.00 0.20 0.20 90 1012.1
20260504200208 12 6 0.0 4.8 0.00 0.20 0.20 90 1012.1
20260504195708 12 6 0.0 4.8 0.00 0.20 0.20 90 1012.0
20260504195208 13 6 1.6 6.4 0.00 0.20 0.20 89 1011.9
20260504194708 13 6 1.6 6.4 0.00 0.20 0.20 89 1011.9
20260504194208 13 6 1.6 6.4 0.00 0.20 0.20 89 1011.9
20260504193708 13 6 1.6 11.3 0.00 0.20 0.20 89 1011.8
20260504193208 13 7 3.2 9.7 0.00 0.20 0.20 89 1011.7
20260504192708 13 7 3.2 11.3 0.00 0.20 0.20 89 1011.7
20260504192208 13 6 3.2 12.9 0.00 0.20 0.20 89 1011.6
20260504191708 13 5 3.2 14.5 0.00 0.20 0.20 89 1011.4
20260504191208 13 8 3.2 16.1 0.00 0.20 0.20 89 1011.4
20260504190708 13 15 3.2 8.0 0.00 0.20 0.20 90 1011.5
20260504190208 13 15 1.6 9.7 0.00 0.20 0.20 89 1011.4
20260504185708 13 15 4.8 9.7 0.00 0.20 0.20 89 1011.5
20260504185208 13 15 4.8 14.5 0.00 0.20 0.20 89 1011.5
20260504184708 13 18 4.8 14.5 0.00 0.20 0.20 88 1011.5
20260504184208 13 21 4.8 11.3 0.00 0.20 0.20 89 1011.5
20260504183708 13 21 4.8 14.5 0.00 0.20 0.20 89 1011.5
20260504183208 13 19 3.2 11.3 0.00 0.20 0.20 89 1011.4
20260504182708 13 20 3.2 14.5 0.00 0.20 0.20 89 1011.4
20260504182208 13 20 3.2 9.7 0.00 0.20 0.20 89 1011.3
20260504181708 13 20 3.2 11.3 0.00 0.20 0.20 88 1011.2
20260504181208 13 23 4.8 11.3 0.00 0.20 0.20 88 1011.1
20260504180708 13 23 6.4 16.1 0.00 0.20 0.20 87 1011.1
20260504180208 13 8 6.4 12.9 0.00 0.20 0.20 87 1010.9
20260504175708 14 15 4.8 14.5 0.00 0.20 0.20 86 1011.0
20260504175208 15 16 3.2 12.9 0.00 0.20 0.20 85 1011.0
20260504174708 15 9 3.2 11.3 0.00 0.20 0.20 84 1011.1
20260504174208 15 9 4.8 12.9 0.00 0.20 0.20 84 1011.2
20260504173708 16 13 4.8 16.1 0.00 0.20 0.20 83 1011.1
20260504173208 16 17 4.8 14.5 0.00 0.20 0.20 82 1011.1
20260504172708 16 3 4.8 11.3 0.00 0.20 0.20 82 1011.1
20260504172208 17 3 4.8 11.3 0.00 0.20 0.20 81 1011.1
20260504171708 17 1 4.8 12.9 0.00 0.20 0.20 81 1011.0
20260504171208 17 4 4.8 14.5 0.00 0.20 0.20 80 1011.0
20260504170708 17 1 4.8 14.5 0.00 0.20 0.20 80 1010.9
20260504170208 17 4 4.8 14.5 0.00 0.20 0.20 81 1010.8
20260504160208 21 321 1.6 4.8 0.00 0.20 0.20 61 1010.5
20260504150708 19 320 0.0 0.0 0.00 0.46 0.20 72 1010.8
20260504150208 19 320 0.0 4.8 0.00 0.46 0.20 72 1010.8
20260504141208 18 319 0.0 0.0 0.20 1.63 0.20 82 1011.3
20260504140708 17 319 0.0 0.0 0.20 1.63 0.20 82 1011.4
20260504140208 17 319 0.0 0.0 0.20 1.63 0.20 83 1011.5
20260504130708 20 319 0.0 4.8 0.00 1.42 0.00 65 1011.7
20260504130208 20 319 0.0 0.0 0.00 1.42 0.00 64 1011.7
20260504120209 21 315 1.6 8.0 0.00 1.42 0.00 65 1011.8
20260504110709 20 314 0.0 0.0 0.00 1.42 0.00 66 1012.2
20260504110209 20 314 1.6 1.6 0.00 1.42 0.00 68 1012.2
20260504100209 18 313 0.0 8.0 0.00 1.42 0.00 71 1012.3
20260504081709 16 313 0.0 0.0 0.00 1.42 0.00 83 1012.1
20260504081209 16 313 0.0 0.0 0.00 1.42 0.00 82 1012.2
20260504080709 16 313 0.0 0.0 0.00 1.42 0.00 82 1012.1
20260504080209 16 313 0.0 0.0 0.00 1.42 0.00 84 1012.1
20260504070209 13 313 0.0 0.0 0.00 1.45 0.00 94 1011.9
20260504060209 12 313 0.0 0.0 0.00 1.88 0.00 97 1011.3
20260504050709 11 313 0.0 0.0 0.00 1.96 0.00 97 1010.9
20260504050209 11 313 0.0 0.0 0.00 1.96 0.00 97 1011.0
20260504045709 11 313 0.0 0.0 0.00 1.96 0.00 97 1010.9